Weather History for Greenville, ME

Change the Weather History Date:

Friday, November 4, 2011

  Actual Average (KMLT) Record (KMLT)
Temperature  
Mean Temperature 36 °F 39 °F  
Max Temperature 39 °F 47 °F 68 °F (1903)
Min Temperature 32 °F 31 °F 11 °F (2002)
Degree Days  
Heating Degree Days 30 26  
Month to date heating degree days 102  
Since 1 July heating degree days 1036  
Cooling Degree Days 0 0  
Month to date cooling degree days 0  
Year to date cooling degree days 268  
Moisture  
Dew Point 27 °F    
Average Humidity 74    
Maximum Humidity 85    
Minimum Humidity 60    
Precipitation  
Precipitation 0.00 in 0.13 in 3.73 in (1927)
Month to date precipitation 0.52  
Year to date precipitation 35.24  
Sea Level Pressure  
Sea Level Pressure 29.98 in    
Wind  
Wind Speed 11 mph (NW)    
Max Wind Speed 22 mph    
Max Gust Speed 37 mph    
T = Trace of Precipitation, MM = Missing Value Source: NWS Daily Summary

Daily Weather History Graph

Daily Weather History Graph

Search for Another Location

Airport:

Trip Planner

Search our weather history database for the weather conditions in past years. The results will help you decide how hot, cold, wet, or windy it might be!

Date:

Astronomy

Nov. 04, 2011 Rise Set
Actual Time 7:21 AM EDT 5:21 PM EDT
Civil Twilight 6:50 AM EDT 5:52 PM EDT
Nautical Twilight 6:15 AM EDT 6:27 PM EDT
Astronomical Twilight 5:40 AM EDT 7:02 PM EDT
Moon 2:26 PM EDT (11/4) 1:13 AM EDT (11/4)
Length of Visible Light 11h 02m
Length of Day
10h 00m
Waxing Gibbous, 69% of the Moon is Illuminated
Nov 4
Waxing Gibbous
Nov 10
Full
Nov 18
Last Quarter
Nov 25
New
Dec 2
First Quarter

Hourly Weather History & Observations

Time (EDT) Temp. Windchill Dew Point Humidity Pressure Visibility Wind Dir Wind Speed Gust Speed Precip Events Conditions
12:56 AM 39.9 °F 33.4 °F 34.0 °F 79% 29.86 in - NW 10.4 mph 21.9 mph N/A   Unknown
1:56 AM 39.0 °F 33.4 °F 32.0 °F 76% 29.85 in - NW 8.1 mph 17.3 mph N/A   Unknown
2:56 AM 37.0 °F 30.4 °F 32.0 °F 82% 29.86 in - NW 9.2 mph 17.3 mph N/A   Unknown
3:56 AM 36.0 °F 30.3 °F 30.9 °F 82% 29.86 in - Variable 6.9 mph - N/A   Unknown
4:56 AM 34.0 °F 28.0 °F 28.0 °F 79% 29.88 in - Variable 6.9 mph 18.4 mph N/A   Unknown
5:56 AM 33.1 °F 26.1 °F 28.9 °F 85% 29.89 in - NW 8.1 mph 17.3 mph N/A   Unknown
6:56 AM 32.0 °F 25.6 °F 28.0 °F 85% 29.91 in - NW 6.9 mph 21.9 mph N/A   Unknown
7:56 AM 32.0 °F 22.1 °F 28.0 °F 85% 29.92 in - NNW 13.8 mph 25.3 mph N/A   Unknown
8:56 AM 33.1 °F 24.9 °F 28.0 °F 82% 29.93 in - NW 10.4 mph 21.9 mph N/A   Unknown
9:56 AM 34.0 °F 27.2 °F 28.0 °F 79% 29.94 in - NW 8.1 mph 21.9 mph N/A   Unknown
10:56 AM 35.1 °F 27.4 °F 26.1 °F 70% 29.94 in - NW 10.4 mph 24.2 mph N/A   Unknown
11:56 AM 37.0 °F 28.5 °F 25.0 °F 62% 29.95 in - NW 13.8 mph 24.2 mph N/A   Unknown
12:56 PM 37.9 °F 29.6 °F 25.0 °F 60% 29.94 in - NW 13.8 mph 27.6 mph N/A   Unknown
2:56 PM 35.1 °F 25.2 °F 26.1 °F 70% 29.99 in - NNW 16.1 mph 32.2 mph N/A   Unknown
3:56 PM 36.0 °F 28.0 °F 25.0 °F 64% 30.01 in - NW 11.5 mph 28.8 mph N/A   Unknown
4:56 PM 36.0 °F 26.0 °F 25.0 °F 64% 30.04 in - NNW 17.3 mph 28.8 mph N/A   Unknown
6:56 PM 34.0 °F 24.2 °F 25.0 °F 70% 30.11 in - NW 15.0 mph 28.8 mph N/A   Unknown
7:56 PM 34.0 °F 24.2 °F 25.0 °F 70% 30.12 in - NW 15.0 mph 24.2 mph N/A   Unknown
8:56 PM 33.1 °F 21.9 °F 25.0 °F 72% 30.14 in - NW 18.4 mph 31.1 mph N/A   Unknown
9:56 PM 32.0 °F 20.5 °F 24.1 °F 73% 30.17 in - NW 18.4 mph 33.4 mph N/A   Unknown
10:56 PM 33.1 °F 21.9 °F 25.0 °F 72% 30.17 in - NNW 18.4 mph 36.8 mph N/A   Unknown
11:56 PM 33.1 °F 20.9 °F 23.0 °F 66% 30.18 in - NNW 21.9 mph 29.9 mph N/A   Unknown